[[{"header":{"parameterUnit":"m.s-1","parameterCategory":1,"la1":30.2991,"la2":30.254,"lo1":-89.0895,"lo2":-89.0444,"dy":0.0017,"dx":0.0017,"nx":28,"ny":28,"refTime":"2023-09-10T03:00:00:Z","depth":0,"parameterNumber":2,"parameterNumberName":"U-component_of_WINDS"},"data":[0,0,0,0,0,0,0,0,0,0,0,0,0,0,0,0,0,0,0,0,0,0,0,0,0,0,0,0,0,0,0,0,0,0,0,0,0,0,0,0,0,0,0,0,0,0,0,0,0,0,0,0,0,0,0,0,0,0,-0.1449,-0.1448,0,-0.1427,-0.1426,-0.1426,-0.1406,-0.1406,-0.1406,-0.1405,-0.1384,-0.1384,-0.1383,0,0,0,0,0,0,0,0,0,0,0,0,0,-0.1475,-0.1475,-0.1449,-0.1448,-0.1448,-0.1427,-0.1426,-0.1426,-0.1406,-0.1406,-0.1406,-0.1405,-0.1384,-0.1384,-0.1383,0,0,0,0,0,0,0,0,0,0,0,0,0,-0.146,-0.1475,-0.1449,-0.1436,-0.1434,-0.1427,-0.1426,-0.1426,-0.1406,-0.1406,-0.1405,-0.1405,-0.1384,-0.1384,-0.1383,-0.1387,0,0,-0.1382,-0.1381,0,0,0,0,0,0,0,0,-0.146,-0.1459,-0.1438,-0.1436,-0.1435,-0.1419,-0.1428,-0.1413,-0.1406,-0.1417,-0.1405,-0.1405,-0.1396,-0.1394,-0.1391,-0.1386,-0.1385,-0.1382,-0.1381,-0.1381,-0.1381,0,0,0,0,0,0,0,-0.1462,-0.1459,-0.144,-0.1438,-0.1436,-0.1431,-0.1429,-0.1425,-0.1409,-0.1416,-0.1414,-0.1412,-0.1395,-0.1392,-0.139,-0.1385,-0.1382,-0.1381,-0.1381,-0.1381,-0.1383,-0.1383,0,0,0,0,0,0,-0.1464,-0.146,-0.1441,-0.1439,-0.1447,-0.1431,-0.1428,-0.1424,-0.1409,-0.1406,-0.1412,-0.1411,-0.1393,-0.1391,-0.139,-0.1394,-0.1381,-0.1381,-0.138,-0.1383,-0.1383,-0.1383,0,0,0,0,0,0,-0.1465,-0.1463,-0.1442,-0.1449,-0.1446,-0.1431,-0.1427,-0.1424,-0.1421,-0.1406,-0.1403,-0.1412,-0.1392,-0.139,-0.1388,-0.1393,-0.138,-0.138,-0.1382,-0.1383,-0.1383,-0.1402,0,0,0,0,0,0,-0.1466,-0.1463,-0.1464,-0.145,-0.1446,-0.144,-0.1427,-0.1424,-0.142,-0.1418,-0.1405,-0.1402,-0.1392,-0.1389,-0.1388,-0.1392,-0.138,-0.1382,-0.1382,-0.1383,-0.1401,-0.1403,-0.1405,0,0,0,0,0,-0.1467,-0.1471,-0.1464,-0.1462,-0.1447,-0.144,-0.1438,-0.1426,-0.142,-0.1421,-0.1412,-0.1403,-0.1392,-0.1389,-0.1387,-0.1391,-0.1381,-0.1382,-0.1383,-0.14,-0.1402,-0.1405,0,0,0,0,0,0,-0.1487,-0.1469,-0.1461,-0.146,-0.1452,-0.1437,-0.1438,-0.1429,-0.1423,-0.1422,-0.1407,-0.1404,-0.1404,-0.1397,-0.1394,-0.1395,-0.1386,-0.1386,-0.1399,-0.1401,-0.1403,-0.1405,-0.1379,0,0,0,0,0,-0.1491,-0.1487,-0.1471,-0.1472,-0.1468,-0.1454,-0.145,-0.1442,-0.1433,-0.1429,-0.1419,-0.1411,-0.1406,-0.1403,-0.1398,-0.1399,-0.1397,-0.1401,-0.1403,-0.1405,-0.1406,-0.1407,-0.1409,-0.1386,-0.1386,-0.1386,0,0,-0.15,-0.1489,-0.1488,-0.1475,-0.1468,-0.1464,-0.1451,-0.1448,-0.1445,-0.1429,-0.1426,-0.1419,-0.1409,-0.1408,-0.1408,-0.1403,-0.1412,-0.1406,-0.1408,-0.1408,-0.1408,-0.141,-0.1412,-0.1387,-0.1387,-0.1386,0,0,-0.1514,-0.1505,-0.1505,-0.1498,-0.1486,-0.1477,-0.1477,-0.1463,-0.1457,-0.1454,-0.1442,-0.1439,-0.143,-0.1424,-0.1419,-0.1431,-0.1422,-0.143,-0.1441,-0.1441,-0.1443,-0.1445,-0.1449,-0.1451,-0.143,-0.143,-0.143,0,-0.1527,-0.152,-0.1506,-0.1504,-0.1499,-0.1483,-0.1483,-0.1477,-0.1465,-0.1462,-0.1456,-0.1445,-0.1438,-0.1436,-0.1439,-0.1435,-0.1435,-0.1431,-0.1444,-0.1445,-0.1447,-0.1451,-0.1453,-0.1431,-0.1431,-0.1431,-0.1431,0,-0.1537,-0.1532,-0.1533,-0.1521,-0.1517,-0.1515,-0.1502,-0.1499,-0.149,-0.1481,-0.1479,-0.1469,-0.1461,-0.146,-0.1452,-0.1457,-0.1454,-0.1447,-0.1437,-0.145,-0.1454,-0.1455,-0.1433,-0.1432,-0.1432,-0.1432,0,0,-0.1563,-0.1543,-0.1544,-0.1538,-0.1525,-0.1521,-0.1519,-0.1511,-0.1509,-0.1501,-0.1499,-0.1492,-0.1485,-0.148,-0.1471,-0.1472,-0.1482,-0.1464,-0.1464,-0.1468,-0.1488,-0.1494,-0.1496,-0.1476,-0.1476,-0.1477,-0.1489,0,-0.1576,-0.1571,-0.1558,-0.1558,-0.1554,-0.1539,-0.1537,-0.1529,-0.1521,-0.1516,-0.1507,-0.1503,-0.1493,-0.149,-0.149,-0.1481,-0.1486,-0.148,-0.1475,-0.1475,-0.1479,-0.1498,-0.1505,-0.1517,-0.149,-0.149,-0.1491,0,-0.159,-0.1582,-0.1581,-0.1567,-0.1565,-0.1564,-0.1556,-0.1552,-0.1542,-0.1536,-0.153,-0.152,-0.1518,-0.1509,-0.1505,-0.1502,-0.1499,-0.1494,-0.1494,-0.1494,-0.1484,-0.1499,-0.152,-0.1522,-0.1493,-0.1493,-0.1492,0,-0.161,-0.16,-0.1598,-0.1593,-0.1577,-0.1577,-0.157,-0.156,-0.1556,-0.1549,-0.1546,-0.1539,-0.1535,-0.153,-0.1518,-0.1513,-0.1517,-0.1507,-0.1512,-0.1512,-0.1514,-0.1514,-0.1536,-0.1511,-0.1511,-0.1511,-0.1511,0,-0.1626,-0.1626,-0.1606,-0.1605,-0.1605,-0.159,-0.1591,-0.1583,-0.1574,-0.1571,-0.1558,-0.1556,-0.154,-0.1536,-0.1527,-0.1526,-0.1525,-0.152,-0.1518,-0.1522,-0.1522,-0.152,-0.1519,-0.1512,-0.1512,-0.1512,-0.1511,0,-0.1649,-0.1636,-0.1633,-0.1617,-0.1614,-0.1614,-0.1601,-0.16,-0.1591,-0.1587,-0.1586,-0.1572,-0.1566,-0.1554,-0.1546,-0.154,-0.1541,-0.1537,-0.1545,-0.1543,-0.155,-0.1549,-0.1571,-0.1574,-0.1547,-0.1547,-0.1548,0,-0.166,-0.166,-0.1644,-0.1641,-0.1635,-0.163,-0.1626,-0.1612,-0.1608,-0.1597,-0.1597,-0.159,-0.1585,-0.1577,-0.1567,-0.156,-0.1556,-0.1564,-0.1555,-0.1559,-0.1556,-0.1557,-0.1557,-0.1566,-0.1566,-0.1567,-0.1567,0,-0.1681,-0.1675,-0.1669,-0.1661,-0.1656,-0.1649,-0.1642,-0.164,-0.1624,-0.162,-0.1615,-0.161,-0.1601,-0.1596,-0.1588,-0.1581,-0.1572,-0.157,-0.1571,-0.1575,-0.158,-0.1578,-0.1551,-0.1569,-0.1569,-0.1569,-0.1569,-0.1569,-0.1699,-0.1698,-0.1687,-0.1681,-0.1674,-0.1667,-0.1665,-0.1655,-0.165,-0.1641,-0.1633,-0.1629,-0.1619,-0.1607,-0.1601,-0.1598,-0.1593,-0.1594,-0.1594,-0.1595,-0.1597,-0.158,-0.1596,-0.1596,-0.1596,-0.1596,-0.1596,0,-0.172,-0.1712,-0.1707,-0.1696,-0.1692,-0.1682,-0.1673,-0.167,-0.1666,-0.1658,-0.1652,-0.1646,-0.164,-0.1628,-0.1622,-0.1621,-0.1617,-0.162,-0.162,-0.1619,-0.1602,-0.1602,-0.1624,-0.1624,-0.1624,-0.1624,-0.1624,-0.1624,-0.1731,-0.1729,-0.1721,-0.1715,-0.1707,-0.1702,-0.1698,-0.1692,-0.1685,-0.1678,-0.1673,-0.1665,-0.1656,-0.1648,-0.1643,-0.1639,-0.1638,-0.1643,-0.1638,-0.1623,-0.162,-0.1618,-0.1617,-0.1642,-0.1642,-0.1656,-0.1656,-0.1656]},{"header":{"parameterUnit":"m.s-1","parameterCategory":1,"la1":30.2991,"la2":30.254,"lo1":-89.0895,"lo2":-89.0444,"dy":0.0017,"dx":0.0017,"nx":28,"ny":28,"refTime":"2023-09-10T03:00:00:Z","depth":0,"parameterNumber":3,"parameterNumberName":"V-component_of_WINDS"},"data":[0,0,0,0,0,0,0,0,0,0,0,0,0,0,0,0,0,0,0,0,0,0,0,0,0,0,0,0,0,0,0,0,0,0,0,0,0,0,0,0,0,0,0,0,0,0,0,0,0,0,0,0,0,0,0,0,0,0,2.4904,2.4904,0,2.4886,2.4886,2.4885,2.4851,2.485,2.485,2.4849,2.483,2.483,2.4831,0,0,0,0,0,0,0,0,0,0,0,0,0,2.4909,2.4909,2.4904,2.4904,2.4904,2.4886,2.4886,2.4885,2.4851,2.485,2.4849,2.4849,2.483,2.483,2.4831,0,0,0,0,0,0,0,0,0,0,0,0,0,2.4901,2.4909,2.4904,2.4884,2.4882,2.4886,2.4886,2.4885,2.4851,2.485,2.4849,2.4848,2.483,2.483,2.4831,2.4852,0,0,2.4831,2.4831,0,0,0,0,0,0,0,0,2.4901,2.4901,2.4888,2.4886,2.4884,2.487,2.488,2.4874,2.4852,2.4863,2.4849,2.4848,2.4844,2.4843,2.4842,2.4851,2.485,2.4831,2.4831,2.4831,2.4831,0,0,0,0,0,0,0,2.4902,2.4901,2.4897,2.4887,2.4885,2.4876,2.4874,2.4879,2.4859,2.4862,2.4859,2.4858,2.4843,2.4842,2.4841,2.485,2.4831,2.4831,2.4831,2.4831,2.4874,2.4875,0,0,0,0,0,0,2.4905,2.4902,2.4897,2.4896,2.489,2.4877,2.4875,2.4875,2.4859,2.4856,2.4859,2.4856,2.4842,2.4841,2.484,2.4863,2.4831,2.4832,2.4832,2.4873,2.4874,2.4875,0,0,0,0,0,0,2.4906,2.4905,2.4898,2.4898,2.4897,2.4878,2.4879,2.4875,2.4874,2.4857,2.4853,2.4861,2.4841,2.484,2.4849,2.4862,2.4832,2.4832,2.4871,2.4873,2.4874,2.4908,0,0,0,0,0,0,2.4906,2.4906,2.4913,2.4899,2.4897,2.4907,2.488,2.4876,2.4874,2.4871,2.4858,2.4855,2.484,2.4849,2.4849,2.4861,2.4832,2.487,2.4872,2.4874,2.4906,2.4911,2.4915,0,0,0,0,0,2.4906,2.4924,2.4914,2.4914,2.4906,2.4908,2.4907,2.4889,2.4876,2.4883,2.4872,2.4855,2.4861,2.485,2.485,2.4862,2.4869,2.4872,2.4874,2.4904,2.491,2.4915,0,0,0,0,0,0,2.4941,2.4922,2.491,2.4924,2.4918,2.4902,2.4911,2.4896,2.4894,2.4891,2.487,2.4867,2.4878,2.4872,2.486,2.4881,2.4862,2.4865,2.4885,2.4891,2.4895,2.4896,2.4832,0,0,0,0,0,2.495,2.4953,2.4936,2.495,2.4947,2.493,2.493,2.4917,2.491,2.4907,2.4896,2.489,2.489,2.489,2.4889,2.4905,2.4901,2.4914,2.4919,2.4922,2.4924,2.4931,2.4936,2.4882,2.4882,2.4882,0,0,2.4969,2.4959,2.4962,2.4956,2.495,2.4953,2.4928,2.4932,2.4934,2.4907,2.4914,2.4907,2.4898,2.491,2.4915,2.4905,2.4938,2.4925,2.4928,2.4928,2.4934,2.4939,2.4943,2.4884,2.4884,2.4883,0,0,2.5004,2.4997,2.5007,2.5001,2.4992,2.498,2.4983,2.497,2.4963,2.497,2.495,2.4952,2.4953,2.4947,2.4944,2.4978,2.4962,2.4978,2.5001,2.5008,2.5012,2.5016,2.5026,2.503,2.4981,2.4981,2.4981,0,2.5028,2.5032,2.5014,2.5019,2.5017,2.4994,2.5003,2.4999,2.499,2.4989,2.4978,2.4977,2.497,2.498,2.4988,2.4987,2.4989,2.4979,2.5013,2.5016,2.5019,2.5029,2.5033,2.4983,2.4982,2.4982,2.4982,0,2.5062,2.5065,2.5074,2.5065,2.5064,2.5072,2.5055,2.5056,2.5044,2.5033,2.504,2.5031,2.5027,2.5029,2.5017,2.5037,2.503,2.5017,2.4997,2.5027,2.5035,2.5039,2.4985,2.4985,2.4984,2.4984,0,0,2.5117,2.5098,2.5102,2.5097,2.5086,2.5087,2.5094,2.509,2.5091,2.5086,2.509,2.5091,2.5078,2.5075,2.5063,2.5069,2.5094,2.5054,2.5054,2.506,2.5113,2.5122,2.5127,2.5084,2.5085,2.5086,2.5114,0,2.5148,2.5157,2.5142,2.5155,2.5156,2.5135,2.514,2.5133,2.5124,2.5124,2.5114,2.5114,2.5098,2.5096,2.5101,2.509,2.5104,2.5088,2.5087,2.5087,2.5088,2.5132,2.5142,2.5168,2.5117,2.5118,2.5118,0,2.5185,2.5181,2.5195,2.5181,2.5182,2.5187,2.5182,2.5183,2.5175,2.5167,2.5164,2.5149,2.5154,2.5136,2.5142,2.5131,2.513,2.5125,2.5125,2.5123,2.5103,2.5129,2.5177,2.518,2.5123,2.5123,2.5123,0,2.5222,2.522,2.5228,2.5225,2.521,2.5214,2.5208,2.5199,2.5198,2.5194,2.5192,2.5189,2.5187,2.5184,2.5169,2.5158,2.5176,2.5157,2.5169,2.517,2.5173,2.5172,2.5219,2.5175,2.5175,2.5175,2.5175,0,2.5257,2.5265,2.5244,2.5248,2.5257,2.5239,2.5248,2.524,2.5232,2.5234,2.5216,2.5218,2.5199,2.5199,2.5187,2.5193,2.5192,2.5186,2.5182,2.5186,2.5187,2.5184,2.5181,2.5176,2.5176,2.5176,2.5176,0,2.5298,2.5284,2.529,2.5276,2.5273,2.528,2.5267,2.5271,2.5261,2.5263,2.5263,2.5247,2.5246,2.5231,2.5227,2.5219,2.5229,2.5223,2.5231,2.5228,2.5241,2.5239,2.5285,2.529,2.5245,2.5246,2.5246,0,2.5321,2.5327,2.5313,2.5313,2.5308,2.5309,2.5307,2.529,2.5289,2.528,2.5284,2.5282,2.5279,2.5279,2.5266,2.5263,2.5255,2.5272,2.5255,2.5258,2.5253,2.5252,2.5252,2.5275,2.5275,2.5276,2.5276,0,2.5362,2.5354,2.5353,2.5349,2.5347,2.5343,2.5338,2.5339,2.5321,2.5321,2.5319,2.5317,2.5313,2.531,2.5305,2.5298,2.5284,2.5282,2.5284,2.5288,2.5292,2.5288,2.5239,2.5281,2.528,2.528,2.528,2.528,2.5393,2.5397,2.5387,2.5386,2.5381,2.5376,2.5378,2.5368,2.5367,2.5362,2.5353,2.5353,2.5344,2.5335,2.533,2.5329,2.5321,2.5324,2.5325,2.5326,2.5327,2.5293,2.5328,2.5328,2.5328,2.5328,2.5328,0,2.5431,2.5424,2.5423,2.5417,2.5415,2.5403,2.5397,2.5396,2.5396,2.539,2.5387,2.5386,2.5383,2.5371,2.5367,2.5369,2.5362,2.5368,2.5367,2.5365,2.5336,2.5334,2.5373,2.5373,2.5373,2.5373,2.5373,2.5373,2.5451,2.5456,2.5448,2.545,2.5443,2.5443,2.544,2.5436,2.543,2.5429,2.5427,2.5419,2.541,2.5405,2.5402,2.5399,2.5397,2.5405,2.5399,2.5372,2.5367,2.5363,2.5361,2.5406,2.5406,2.5428,2.5428,2.5428]}]]